Windom, MN

2:11 AM CDT on September 16, 2019 (GMT -0500)
Windom Municipal

Weather History for KMWM - August, 2019

Change the Weather History Date:

Sunday, August 25, 2019

  Actual Average Record
Temperature  
Mean Temperature 62 °F -  
Max Temperature 68 °F 79 °F 95 °F (1948)
Min Temperature 57 °F 58 °F 38 °F (1958)
Degree Days  
Heating Degree Days 2    
Growing Degree Days 12 (Base 50)    
Moisture  
Dew Point 58 °F    
Average Humidity 84    
Maximum Humidity 94    
Minimum Humidity 73    
Precipitation  
Precipitation 0.00 in - - ()
Sea Level Pressure  
Sea Level Pressure 29.95 in    
Wind  
Wind Speed 9 mph ()    
Max Wind Speed 14 mph    
Max Gust Speed 20 mph    
Visibility 10.0 miles    
Events Rain    
Averages and records for this station are not official NWS values.
T = Trace of Precipitation, MM = Missing Value Source: Averaged Metar Reports

Daily Weather History Graph

Daily Weather History Graph

Search for Another Location

Airport or City:

Astronomy

Aug. 25, 2019 Rise Set
Actual Time 6:35 AM CDT 8:08 PM CDT
Civil Twilight 6:05 AM CDT 8:38 PM CDT
Nautical Twilight 5:28 AM CDT 9:15 PM CDT
Astronomical Twilight 4:49 AM CDT 9:54 PM CDT
Moon 1:05 AM CDT (8/25) 4:37 PM CDT (8/25)
Length of Visible Light 14h 33m
Length of Day
13h 33m
Waning Crescent, 29% of the Moon is Illuminated
Aug 25
Waning Crescent
Aug 30
New
Sep 5
First Quarter
Sep 13
Full
Sep 21
Last Quarter

Hourly Weather History & Observations

Time (CDT) Temp. Dew Point Humidity Pressure Visibility Wind Dir Wind Speed Gust Speed Precip Events Conditions
12:15 AM 59.0 °F 53.6 °F 82% 30.08 in 10.0 mi SE 5.8 mph - N/A   Clear
12:16 AM 59.0 °F 53.6 °F 82% 30.08 in 10.0 mi SE 6.9 mph - N/A   Clear
12:35 AM 59.0 °F 53.6 °F 82% 30.08 in 10.0 mi SE 6.9 mph - N/A   Clear
12:36 AM 59.0 °F 53.6 °F 82% 30.08 in 10.0 mi SE 6.9 mph - N/A   Clear
12:59 AM 59.0 °F 53.6 °F 82% 30.07 in 10.0 mi SE 5.8 mph - N/A   Clear
1:16 AM 60.8 °F 53.6 °F 77% 30.07 in 10.0 mi SE 6.9 mph - N/A   Clear
1:36 AM 60.8 °F 55.4 °F 82% 30.06 in 10.0 mi SE 6.9 mph - N/A   Clear
1:55 AM 60.8 °F 55.4 °F 82% 30.05 in 10.0 mi SE 8.1 mph - N/A   Clear
1:56 AM 60.8 °F 55.4 °F 82% 30.05 in 10.0 mi SE 8.1 mph - N/A   Clear
2:15 AM 60.8 °F 55.4 °F 82% 30.05 in 10.0 mi SE 9.2 mph - N/A   Clear
2:19 AM 60.8 °F 55.4 °F 82% 30.05 in 10.0 mi SE 8.1 mph - N/A   Clear
2:37 AM 60.8 °F 55.4 °F 82% 30.03 in 10.0 mi SE 9.2 mph - N/A   Clear
2:56 AM 60.8 °F 55.4 °F 82% 30.03 in 10.0 mi SE 10.4 mph - N/A   Clear
3:15 AM 60.8 °F 55.4 °F 82% 30.02 in 10.0 mi ESE 9.2 mph - N/A   Clear
3:16 AM 60.8 °F 55.4 °F 82% 30.02 in 10.0 mi ESE 8.1 mph - N/A   Clear
3:35 AM 60.8 °F 55.4 °F 82% 30.02 in 10.0 mi SE 8.1 mph - N/A   Clear
3:59 AM 59.0 °F 55.4 °F 88% 30.01 in 10.0 mi SE 9.2 mph - N/A   Clear
4:16 AM 59.0 °F 55.4 °F 88% 30.01 in 10.0 mi SE 8.1 mph - N/A   Clear
4:35 AM 59.0 °F 55.4 °F 88% 30.01 in 10.0 mi SE 10.4 mph - N/A   Clear
4:55 AM 59.0 °F 55.4 °F 88% 30.01 in 10.0 mi SSE 9.2 mph - N/A   Clear
4:56 AM 59.0 °F 55.4 °F 88% 30.01 in 10.0 mi SE 8.1 mph - N/A   Clear
5:15 AM 57.2 °F 55.4 °F 94% 30.00 in 10.0 mi SE 8.1 mph - N/A   Clear
5:19 AM 57.2 °F 55.4 °F 94% 30.01 in 10.0 mi SE 6.9 mph - N/A   Clear
5:38 AM 57.2 °F 55.4 °F 94% 30.00 in 10.0 mi SE 8.1 mph - N/A   Clear
5:55 AM 59.0 °F 55.4 °F 88% 30.00 in 10.0 mi SSE 8.1 mph - N/A   Scattered Clouds
6:15 AM 60.8 °F 57.2 °F 88% 30.00 in 10.0 mi SSE 9.2 mph - N/A   Mostly Cloudy
6:16 AM 60.8 °F 57.2 °F 88% 30.00 in 10.0 mi SSE 8.1 mph - N/A   Mostly Cloudy
6:35 AM 60.8 °F 57.2 °F 88% 30.00 in 10.0 mi SE 8.1 mph - N/A   Scattered Clouds
6:36 AM 60.8 °F 57.2 °F 88% 30.00 in 10.0 mi SE 8.1 mph - N/A   Scattered Clouds
6:59 AM 60.8 °F 57.2 °F 88% 29.99 in 10.0 mi SE 10.4 mph - N/A   Clear
7:17 AM 60.8 °F 57.2 °F 88% 29.98 in 10.0 mi SE 9.2 mph - N/A   Scattered Clouds
7:36 AM 60.8 °F 57.2 °F 88% 29.98 in 10.0 mi SE 10.4 mph - N/A   Clear
7:55 AM 60.8 °F 57.2 °F 88% 29.98 in 10.0 mi SE 10.4 mph - N/A   Scattered Clouds
7:56 AM 60.8 °F 57.2 °F 88% 29.98 in 10.0 mi SE 10.4 mph - N/A   Scattered Clouds
8:15 AM 60.8 °F 55.4 °F 82% 29.98 in 10.0 mi SE 10.4 mph - N/A   Scattered Clouds
8:20 AM 60.8 °F 57.2 °F 88% 29.98 in 10.0 mi SE 9.2 mph 18.4 mph N/A Rain Rain
8:37 AM 60.8 °F 57.2 °F 88% 29.98 in 10.0 mi SE 11.5 mph 17.3 mph N/A   Scattered Clouds
8:55 AM 60.8 °F 57.2 °F 88% 29.98 in 10.0 mi SE 11.5 mph - N/A   Clear
9:15 AM 62.6 °F 57.2 °F 82% 29.97 in 10.0 mi SE 13.8 mph 18.4 mph N/A   Scattered Clouds
9:16 AM 62.6 °F 57.2 °F 82% 29.97 in 10.0 mi SE 13.8 mph 18.4 mph N/A   Scattered Clouds
9:35 AM 62.6 °F 57.2 °F 82% 29.98 in 10.0 mi SE 10.4 mph - N/A   Scattered Clouds
9:58 AM 62.6 °F 57.2 °F 82% 29.97 in 10.0 mi SE 12.7 mph 17.3 mph N/A   Scattered Clouds
10:16 AM 62.6 °F 57.2 °F 82% 29.98 in 10.0 mi SE 11.5 mph - N/A   Scattered Clouds
10:36 AM 62.6 °F 57.2 °F 82% 29.97 in 10.0 mi SE 12.7 mph - N/A   Scattered Clouds
10:55 AM 64.4 °F 57.2 °F 77% 29.97 in 10.0 mi SE 11.5 mph - N/A   Scattered Clouds
10:56 AM 64.4 °F 57.2 °F 77% 29.97 in 10.0 mi SE 10.4 mph - N/A   Scattered Clouds
11:15 AM 64.4 °F 57.2 °F 77% 29.97 in 10.0 mi SE 13.8 mph 18.4 mph N/A Rain Light Rain
11:37 AM 64.4 °F 59.0 °F 83% 29.97 in 10.0 mi SE 11.5 mph - N/A Rain Rain
11:56 AM 62.6 °F 59.0 °F 88% 29.97 in 10.0 mi SE 6.9 mph - N/A Rain Light Rain
12:15 PM 62.6 °F 60.8 °F 94% 29.97 in 10.0 mi SSE 5.8 mph - N/A Rain Light Rain
12:16 PM 62.6 °F 60.8 °F 94% 29.97 in 10.0 mi SE 8.1 mph - N/A Rain Light Rain
12:35 PM 62.6 °F 60.8 °F 94% 29.96 in 10.0 mi SE 10.4 mph - N/A Rain Light Rain
12:59 PM 64.4 °F 60.8 °F 88% 29.96 in 10.0 mi SE 9.2 mph - N/A Rain Light Rain
1:16 PM 64.4 °F 60.8 °F 88% 29.96 in 10.0 mi SE 8.1 mph - N/A   Light Drizzle
1:35 PM 64.4 °F 60.8 °F 88% 29.96 in 10.0 mi SE 8.1 mph - N/A Rain Light Rain
1:55 PM 64.4 °F 60.8 °F 88% 29.95 in 10.0 mi SE 6.9 mph - N/A Rain Light Rain
1:56 PM 64.4 °F 60.8 °F 88% 29.95 in 10.0 mi SE 8.1 mph - N/A Rain Light Rain
2:15 PM 66.2 °F 60.8 °F 83% 29.94 in 10.0 mi ESE 9.2 mph - N/A   Light Drizzle
2:19 PM 66.2 °F 60.8 °F 83% 29.94 in 10.0 mi ESE 9.2 mph - N/A Rain Light Rain
2:38 PM 66.2 °F 60.8 °F 83% 29.92 in 10.0 mi ESE 12.7 mph 17.3 mph N/A   Clear
2:55 PM 66.2 °F 60.8 °F 83% 29.92 in 10.0 mi ESE 12.7 mph 19.6 mph N/A   Clear
3:15 PM 66.2 °F 60.8 °F 83% 29.91 in 10.0 mi ESE 13.8 mph 19.6 mph N/A Rain Light Rain
3:16 PM 66.2 °F 60.8 °F 83% 29.91 in 10.0 mi ESE 13.8 mph 19.6 mph N/A Rain Light Rain
3:58 PM 66.2 °F 60.8 °F 83% 29.90 in 10.0 mi SE 11.5 mph - N/A Rain Light Rain
4:16 PM 68.0 °F 60.8 °F 78% 29.90 in 10.0 mi ESE 12.7 mph - N/A   Scattered Clouds
4:35 PM 66.2 °F 60.8 °F 83% 29.90 in 10.0 mi SE 10.4 mph 16.1 mph N/A   Mostly Cloudy
4:36 PM 66.2 °F 60.8 °F 83% 29.90 in 10.0 mi SE 9.2 mph 16.1 mph N/A   Mostly Cloudy
4:55 PM 66.2 °F 60.8 °F 83% 29.89 in 10.0 mi SE 10.4 mph - N/A   Overcast
5:15 PM 66.2 °F 60.8 °F 83% 29.88 in 10.0 mi ESE 8.1 mph 16.1 mph N/A   Mostly Cloudy
5:38 PM 68.0 °F 60.8 °F 78% 29.88 in 10.0 mi SE 10.4 mph 16.1 mph N/A   Mostly Cloudy
5:55 PM 68.0 °F 59.0 °F 73% 29.88 in 10.0 mi SE 13.8 mph 17.3 mph N/A   Overcast
6:15 PM 68.0 °F 59.0 °F 73% 29.88 in 10.0 mi SE 12.7 mph 18.4 mph N/A   Mostly Cloudy
6:35 PM 68.0 °F 60.8 °F 78% 29.88 in 10.0 mi SE 10.4 mph - N/A   Scattered Clouds
6:36 PM 68.0 °F 60.8 °F 78% 29.88 in 10.0 mi SE 9.2 mph - N/A   Scattered Clouds
6:58 PM 66.2 °F 60.8 °F 83% 29.87 in 10.0 mi SE 10.4 mph - N/A   Clear
7:17 PM 66.2 °F 60.8 °F 83% 29.87 in 10.0 mi SE 10.4 mph - N/A   Clear
7:36 PM 66.2 °F 60.8 °F 83% 29.87 in 10.0 mi SE 8.1 mph - N/A   Clear
7:55 PM 66.2 °F 60.8 °F 83% 29.86 in 10.0 mi SE 9.2 mph - N/A   Scattered Clouds
8:15 PM 66.2 °F 60.8 °F 83% 29.86 in 10.0 mi SE 10.4 mph - N/A   Scattered Clouds
8:20 PM 66.2 °F 59.0 °F 78% 29.86 in 10.0 mi SE 10.4 mph 16.1 mph N/A   Scattered Clouds
8:37 PM 66.2 °F 60.8 °F 83% 29.86 in 10.0 mi SSE 10.4 mph - N/A   Scattered Clouds
8:56 PM 66.2 °F 60.8 °F 83% 29.86 in 10.0 mi SSE 10.4 mph 17.3 mph N/A   Clear
9:15 PM 66.2 °F 60.8 °F 83% 29.87 in 10.0 mi SSE 10.4 mph 16.1 mph N/A   Clear
9:16 PM 66.2 °F 60.8 °F 83% 29.87 in 10.0 mi SSE 11.5 mph 16.1 mph N/A   Clear
9:35 PM 66.2 °F 60.8 °F 83% 29.87 in 10.0 mi SSE 10.4 mph - N/A   Scattered Clouds
9:36 PM 66.2 °F 60.8 °F 83% 29.87 in 10.0 mi SSE 10.4 mph - N/A   Scattered Clouds
9:59 PM 66.2 °F 60.8 °F 83% 29.87 in 10.0 mi SSE 9.2 mph - N/A   Clear
10:16 PM 66.2 °F 60.8 °F 83% 29.88 in 10.0 mi SSE 9.2 mph - N/A   Clear
10:36 PM 64.4 °F 60.8 °F 88% 29.88 in 10.0 mi SSE 8.1 mph - N/A   Scattered Clouds
10:55 PM 64.4 °F 60.8 °F 88% 29.88 in 10.0 mi SSE 8.1 mph - N/A   Scattered Clouds
11:15 PM 64.4 °F 60.8 °F 88% 29.87 in 10.0 mi SSE 13.8 mph - N/A   Scattered Clouds
11:19 PM 64.4 °F 60.8 °F 88% 29.87 in 10.0 mi SSE 12.7 mph 16.1 mph N/A   Scattered Clouds
11:37 PM 64.4 °F 60.8 °F 88% 29.86 in 10.0 mi SSE 13.8 mph 18.4 mph N/A   Scattered Clouds
11:56 PM 64.4 °F 60.8 °F 88% 29.86 in 10.0 mi SSE 12.7 mph - N/A   Mostly Cloudy